Columbus, OH

7:14 AM EST on December 07, 2016 (GMT -0500)
Ohio State University

Weather History for KOSU - December, 2012

Change the Weather History Date:

Monday, December 17, 2012

  Actual Average Record
Temperature  
Mean Temperature 42 °F -  
Max Temperature 48 °F 37 °F 61 °F (2006)
Min Temperature 37 °F 23 °F 10 °F (2000)
Degree Days  
Heating Degree Days 22    
Moisture  
Dew Point 42 °F    
Average Humidity 96    
Maximum Humidity 100    
Minimum Humidity 86    
Precipitation  
Precipitation 0.21 in - - ()
Sea Level Pressure  
Sea Level Pressure 29.66 in    
Wind  
Wind Speed 3 mph (North)    
Max Wind Speed 12 mph    
Max Gust Speed -    
Visibility 3 miles    
Events Fog , Rain    
Averages and records for this station are not official NWS values.
T = Trace of Precipitation, MM = Missing Value Source: NWS Daily Summary

Daily Weather History Graph

Daily Weather History Graph

Search for Another Location

Airport or City:

Trip Planner

Search our weather history database for the weather conditions in past years. The results will help you decide how hot, cold, wet, or windy it might be!

Date:

Astronomy

Dec. 17, 2012 Rise Set
Actual Time 7:48 AM EST 5:08 PM EST
Civil Twilight 7:18 AM EST 5:39 PM EST
Nautical Twilight 6:44 AM EST 6:13 PM EST
Astronomical Twilight 6:11 AM EST 6:46 PM EST
Moon 10:56 AM EST (12/17) 10:29 PM EST (12/17)
Length of Visible Light 10h 20m
Length of Day
9h 19m
Waxing Crescent, 24% of the Moon is Illuminated
Dec 17
Waxing Crescent
Dec 20
First Quarter
Dec 28
Full
Jan 4
Last Quarter
Jan 11
New

Hourly Weather History & Observations

Time (EST) Temp. Windchill Dew Point Humidity Pressure Visibility Wind Dir Wind Speed Gust Speed Precip Events Conditions
12:53 AM 46.0 °F - 43.0 °F 89% 29.72 in 9.0 mi Calm Calm - N/A   Partly Cloudy
1:53 AM 45.0 °F - 43.0 °F 93% 29.72 in 10.0 mi Calm Calm - N/A   Clear
2:45 AM 41.0 °F - 41.0 °F 100% 29.73 in 1.8 mi Calm Calm - N/A   Clear
2:53 AM 41.0 °F - 39.9 °F 96% 29.74 in 3.0 mi Calm Calm - N/A   Clear
3:05 AM 39.2 °F - 39.2 °F 100% 29.73 in 0.8 mi Calm Calm - N/A   Clear
3:53 AM 42.1 °F 40.2 °F 42.1 °F 100% 29.74 in 1.0 mi West 3.5 mph - N/A   Mostly Cloudy
4:01 AM 41.0 °F - 41.0 °F 100% 29.73 in 0.8 mi Calm Calm - N/A   Mostly Cloudy
4:06 AM 39.2 °F - 39.2 °F 100% 29.73 in 0.2 mi Calm Calm - N/A Fog Fog
4:29 AM 39.2 °F - 39.2 °F 100% 29.72 in 0.5 mi Calm Calm - N/A Fog Fog
4:39 AM 39.2 °F - 39.2 °F 100% 29.72 in 1.0 mi Calm Calm - N/A   Scattered Clouds
4:43 AM 39.2 °F - 39.2 °F 100% 29.73 in 0.2 mi Calm Calm - N/A Fog Fog
4:53 AM 37.0 °F 34.5 °F 37.0 °F 100% 29.74 in 0.2 mi WNW 3.5 mph - N/A Fog Fog
5:08 AM 37.4 °F 32.8 °F 37.4 °F 100% 29.73 in 1.0 mi NW 5.8 mph - N/A   Mostly Cloudy
5:13 AM 39.2 °F 33.6 °F 39.2 °F 100% 29.73 in 3.0 mi NW 8.1 mph - N/A   Mostly Cloudy
5:49 AM 41.0 °F 39.0 °F 41.0 °F 100% 29.73 in 4.0 mi NNW 3.5 mph - N/A   Overcast
5:50 AM 41.0 °F 39.0 °F 41.0 °F 100% 29.73 in 4.0 mi NNW 3.5 mph - N/A   Overcast
6:33 AM 41.0 °F - 41.0 °F 100% 29.73 in 4.0 mi Calm Calm - N/A   Overcast
6:51 AM 41.0 °F - 41.0 °F 100% 29.73 in 4.0 mi Calm Calm - N/A   Scattered Clouds
6:53 AM 41.0 °F 39.0 °F 41.0 °F 100% 29.74 in 3.0 mi NW 3.5 mph - N/A   Scattered Clouds
7:18 AM 41.0 °F - 41.0 °F 100% 29.74 in 4.0 mi Calm Calm - N/A   Mostly Cloudy
7:53 AM 41.0 °F - 41.0 °F 100% 29.75 in 4.0 mi Calm Calm - N/A   Overcast
8:00 AM 41.0 °F - 41.0 °F 100% 29.74 in 2.5 mi Calm Calm - N/A   Overcast
8:09 AM 41.0 °F 39.0 °F 41.0 °F 100% 29.74 in 3.0 mi NW 3.5 mph - N/A   Overcast
8:53 AM 44.1 °F - 43.0 °F 96% 29.74 in 3.0 mi Calm Calm - N/A   Overcast
9:53 AM 45.0 °F 42.6 °F 43.0 °F 93% 29.72 in 3.0 mi ENE 4.6 mph - N/A   Overcast
10:24 AM 46.4 °F 44.3 °F 42.8 °F 87% 29.70 in 4.0 mi NE 4.6 mph - N/A   Mostly Cloudy
10:49 AM 46.4 °F 45.2 °F 42.8 °F 87% 29.70 in 4.0 mi ENE 3.5 mph - N/A   Overcast
10:53 AM 46.0 °F 43.1 °F 43.0 °F 89% 29.70 in 4.0 mi NE 5.8 mph - N/A   Mostly Cloudy
11:02 AM 46.4 °F 44.3 °F 42.8 °F 87% 29.69 in 4.0 mi NE 4.6 mph - N/A   Scattered Clouds
11:53 AM 46.9 °F - 43.0 °F 86% 29.67 in 5.0 mi East 3.5 mph - N/A   Mostly Cloudy
12:21 PM 46.4 °F - 44.6 °F 93% 29.65 in 5.0 mi Calm Calm - N/A   Overcast
12:32 PM 46.4 °F - 42.8 °F 87% 29.65 in 5.0 mi Calm Calm - N/A   Overcast
12:53 PM 48.0 °F - 44.1 °F 86% 29.65 in 4.0 mi NE 3.5 mph - 0.00 in Rain Light Rain
1:11 PM 46.4 °F 45.2 °F 44.6 °F 93% 29.63 in 2.5 mi ENE 3.5 mph - 0.01 in Rain Light Rain
1:27 PM 46.4 °F 45.2 °F 44.6 °F 93% 29.61 in 3.0 mi NE 3.5 mph - 0.01 in Rain Light Rain
1:53 PM 46.9 °F - 46.0 °F 97% 29.61 in 2.0 mi NNE 3.5 mph - 0.03 in Rain Rain
2:09 PM 46.4 °F 44.3 °F 46.4 °F 100% 29.59 in 3.0 mi NE 4.6 mph - 0.00 in Rain Light Rain
2:53 PM 48.0 °F - 46.0 °F 93% 29.58 in 2.5 mi NNE 4.6 mph - 0.00 in   Overcast
3:02 PM 48.2 °F - 46.4 °F 93% 29.56 in 3.0 mi NNE 6.9 mph - N/A   Overcast
3:21 PM 48.2 °F - 46.4 °F 93% 29.56 in 2.5 mi NNE 5.8 mph - N/A   Overcast
3:53 PM 48.0 °F - 46.9 °F 96% 29.56 in 2.5 mi NE 5.8 mph - N/A   Overcast
4:26 PM 46.4 °F 42.4 °F 46.4 °F 100% 29.56 in 1.5 mi WNW 8.1 mph - 0.03 in Rain Rain
4:48 PM 46.4 °F 41.9 °F 46.4 °F 100% 29.56 in 2.5 mi NNW 9.2 mph - 0.12 in Rain Rain
4:53 PM 46.9 °F - 46.0 °F 97% 29.58 in 2.5 mi NW 6.9 mph - 0.13 in Rain Rain
5:02 PM 46.4 °F 42.4 °F 46.4 °F 100% 29.57 in 2.5 mi NW 8.1 mph - 0.02 in Rain Rain
7:53 PM 44.1 °F 40.1 °F 43.0 °F 96% 29.57 in 3.0 mi NNW 6.9 mph - N/A   Overcast
8:53 PM 44.1 °F 39.5 °F 43.0 °F 96% 29.56 in 5.0 mi NNW 8.1 mph - N/A   Overcast
9:53 PM 43.0 °F 38.8 °F 42.1 °F 97% 29.57 in 3.0 mi NW 6.9 mph - N/A   Overcast
10:02 PM 42.8 °F 38.0 °F 42.8 °F 100% 29.56 in 2.5 mi NW 8.1 mph - N/A   Overcast
10:35 PM 42.8 °F 36.6 °F 42.8 °F 100% 29.57 in 1.8 mi WNW 11.5 mph - 0.02 in Rain Light Rain
10:53 PM 42.1 °F 37.7 °F 42.1 °F 100% 29.58 in 1.5 mi NNW 6.9 mph - 0.03 in Rain Light Rain
11:21 PM 42.8 °F 38.6 °F 41.0 °F 93% 29.58 in 2.0 mi NW 6.9 mph - 0.01 in Rain Light Rain
11:50 PM 41.0 °F 35.2 °F 41.0 °F 100% 29.58 in 3.0 mi NW 9.2 mph - 0.02 in Rain Light Rain
11:53 PM 41.0 °F 35.2 °F 41.0 °F 100% 29.59 in 3.0 mi NW 9.2 mph - 0.02 in Rain Light Rain